7 * 24
多渠道服务支持
STARLINK-32245 是 SpaceX Starlink 项目中的一颗低轨通信卫星,旨在为全球用户提供高速互联网服务。该卫星属于 Starlink 二代星座计划的一部分,搭载先进通信设备,支持更高带宽和更低延迟。其发射有助于扩展 Starlink 在偏远和农村地区的网络覆盖,提升整体服务质量。该卫星运行在约 550 公里的轨道高度,采用可控制设计,以减少太空碎片风险。
美国
(US)
| 数据来源 | 国际轨道数据 |
| 星历时间: | 2025-11-02T13:18:26+0800 1天前 查看轨道信息 |
| 半长轴: | 6861.152km |
| 偏心率: | 0.0001291 |
| 轨道倾角: | 43.000° |
| 近地点辐角 | 269.426° |
| 升交点赤经 | 136.112° |
| 平近点角 | 90.645° |
| 近地点: | 482.131km |
| 远地点: | 483.903km |
| 周期: | 94.266分钟 |
| 每日圈数: | 15.275917 |